Location: *
(46.4000°N, 12.6667°E)
Time: 04:58:45
(UTC+00:00)

X-37B - Pass Details

Date: 11 December 2021
Orbit: 334 x 337 km, 45.0° (Epoch: 11 January)

Event Time Altitude Azimuth Distance (km) Brightness Sun altitude
Rises 16:59:53 0° 256° (WSW) 2,102 6.2 -16.0°
Reaches altitude 10° 17:01:54 10° 253° (WSW) 1,266 4.5 -16.3°
Maximum altitude 17:04:42 60° 172° (S) 388 0.5 -16.8°
Enters shadow 17:05:05 52° 132° (SE) 421 0.5 -16.9°
